sat.trackr.live / text

‹ back to catalog

FLOCK 4Q-7

NORAD 58318 · 2023-174BQ

PAYLOAD ACTIVE UNKNOWN

§ Identity

Operator
Country
US
Launch date
2023-11-11
Launch site
AFWTR
Launch vehicle
Mass (kg)
RCS (m²)

Purposes: earth_obs

External: N2YO · Heavens-Above · Gunter

§ Orbital elements

Epoch: 2026-05-25T05:28:48.400608Z

Period
92.67 min
Inclination
97.3910°
Eccentricity
0.0006573
Mean motion
15.53895585 rev/d
Perigee alt
400.9 km
Apogee alt
409.8 km
Semi-major
6,783.5 km
B*
4.9906e-4
RAAN
235.9631°
Arg perigee
207.5968°
Mean anomaly
152.4937°
Rev number
14,218

§ Raw data

FLOCK 4Q-71 58318U 23174BQ  26145.22833797  .00032148  00000+0  49906-3 0  99992 58318  97.3910 235.9631 0006573 207.5968 152.4937 15.53895585142184

JSON: /api/v1/satellites/58318 · /tle

For live sub-satellite position, see the globe view (requires WebGL).

§ Visibility from observer

Set your observer location to see the next 7 days of passes ≥ 10°. The values pass through the URL so the page stays shareable.

No JS? Fill the form by hand. The geolocation button needs JavaScript.